This demonstration page uses our WeatherBlox Daily Observations layout. Learn more.

Left ArrowRight Arrow

Hourly Observations for November 29, 2015

Temp ( °F °C ) Dew Point ( °F °C ) Humidity (%) Winds ( mph kmh ) Pressure ( in mb ) Visibility ( mi km ) Precip ( " mm )
12:53 am 00:53 Partly Cloudy 54 12.2 52 11.1 93 93 Calm 30.20 1023 9 14 0.00 0.00
1:53 am 01:53 Mostly Cloudy 55 12.8 52 11.1 90 90 Calm 30.19 1022 10 16 0.00 0.00
2:53 am 02:53 Mostly Clear 54 12.2 51 10.6 90 90 Calm 30.18 1022 9 14 0.00 0.00
3:53 am 03:53 Mostly Clear 53 11.7 51 10.6 93 93 Calm 30.17 1022 9 14 0.00 0.00
4:53 am 04:53 Clear 53 11.7 51 10.6 93 93 Calm 30.17 1022 9 14 0.00 0.00
5:28 am 05:28 Mostly Clear with Mist and Fog 52 11 50 10 94 94 Calm 30.21 1023 2 2 0.00 0.00
5:41 am 05:41 Mostly Clear with Mist and Fog 52 11.1 49 9.4 89 89 Calm 30.21 1023 3 5 0.00 0.00
5:53 am 05:53 Mostly Clear 52 11.1 50 10 93 93 Calm 30.17 1022 9 14 0.00 0.00
5:56 am 05:56 Mostly Clear 52 11 50 10 94 94 Calm 30.21 1023 9 14 0.00 0.00
6:53 am 06:53 Mostly Cloudy 53 11.7 51 10.6 93 93 Calm 30.18 1022 10 16 0.00 0.00
7:53 am 07:53 Partly Cloudy 53 11.7 51 10.6 93 93 Calm 30.19 1023 9 14 0.00 0.00
8:53 am 08:53 Cloudy 58 14.4 53 11.7 84 84 Calm 30.20 1023 10 16 0.00 0.00
9:53 am 09:53 Cloudy 62 16.7 54 12.2 75 75 Calm 30.20 1023 10 16 0.00 0.00
10:53 am 10:53 Cloudy 66 18.9 53 11.7 63 63 SW 6 9 30.19 1022 10 16 0.00 0.00
11:53 am 11:53 Mostly Cloudy 70 21.1 53 11.7 55 55 SW 7 11 30.16 1021 10 16 0.00 0.00
12:53 pm 12:53 Cloudy 72 22.2 54 12.2 53 53 SW 6 9 30.12 1020 10 16 0.00 0.00
1:53 pm 13:53 Mostly Cloudy 73 22.8 55 12.8 53 53 SSE 8 13 30.09 1019 10 16 0.00 0.00
2:53 pm 14:53 Partly Cloudy 73 22.8 53 11.7 50 50 S 8 13 30.07 1018 10 16 0.00 0.00
3:53 pm 15:53 Cloudy 73 22.8 53 11.7 50 50 SSE 8 13 30.06 1018 10 16 0.00 0.00
4:53 pm 16:53 Cloudy 72 22.2 53 11.7 52 52 S 6 9 30.06 1018 10 16 0.00 0.00
5:53 pm 17:53 Cloudy 70 21.1 53 11.7 55 55 SSE 5 7 30.07 1018 10 16 0.00 0.00
6:53 pm 18:53 Cloudy 67 19.4 56 13.3 68 68 Calm 30.09 1019 10 16 0.00 0.00
7:53 pm 19:53 Cloudy 66 18.9 57 13.9 73 73 Calm 30.09 1019 10 16 0.00 0.00
8:53 pm 20:53 Cloudy 66 18.9 56 13.3 70 70 Calm 30.09 1019 10 16 0.00 0.00
9:53 pm 21:53 Cloudy 64 17.8 57 13.9 78 78 Calm 30.09 1019 10 16 0.00 0.00
10:53 pm 22:53 Cloudy 65 18.3 57 13.9 76 76 Calm 30.08 1019 10 16 0.00 0.00
11:53 pm 23:53 Cloudy 63 17.2 57 13.9 81 81 Calm 30.07 1018 10 16 0.00 0.00

Powered by AerisWeather